Temp
10 10 10 10 10 10 11 11 12 12 12 11 10 11 11 12 12 12 10 10 9 9 9 9 9 9 9 9 9 9 9 9 9 9 9 10 9 9 9 9 9 9 9 9 8 8 8 8 8
10 10 10 10 10 10 12 11 12 12 12 12 11 11 12 12 12 12 11 10 9 10 9 9 9 10 10 9 9 9 9 9 9 9 10 9 9 9 9 9 9 9 9 9 8 8 8 8 8
10 10 10 10 10 11 12 12 13 12 11 12 12 11 12 12 12 12 11 10 9 10 9 10 9 10 9 9 9 9 9 9 9 10 9 9 9 9 9 9 9 9 9 9 8 8 8 8 8
10 10 10 10 11 11 11 11 12 11 11 11 12 11 12 12 12 12 10 10 10 10 9 10 10 10 9 9 9 9 9 9 9 10 9 9 9 9 9 9 9 9 9 9 8 8 8 8 8
11 11 10 10 10 11 10 10 12 12 12 12 12 12 12 12 11 11 10 10 10 9 9 9 10 9 9 9 9 9 9 9 9 10 9 9 9 9 9 9 9 9 9 9 9 9 9 8 8
10 11 10 11 10 12 11 10 11 12 13 12 12 12 12 11 11 11 10 10 10 10 10 10 9 9 9 9 9 9 9 9 9 9 9 9 9 9 9 9 9 9 9 9 9 9 9 8 8
10 11 10 11 11 11 11 12 11 13 12 11 12 13 13 11 10 11 10 10 9 10 10 9 10 9 9 9 9 9 9 9 9 9 9 9 9 9 9 9 9 8 8 8 8 8 9 8 7
11 11 11 12 11 10 11 12 13 13 14 13 12 13 13 12 10 10 10 10 9 10 10 9 9 9 9 9 9 9 9 9 9 9 9 10 10 10 9 9 8 8 8 7 8 8 7 7 7
11 12 12 11 10 10 10 11 12 13 14 12 12 11 13 12 10 10 10 10 9 10 10 9 9 9 9 9 9 9 9 9 9 10 10 9 9 10 9 9 9 9 8 8 7 8 7 7 7
11 11 12 12 11 11 12 12 13 13 13 14 12 12 12 12 11 11 11 11 10 10 10 9 9 9 9 9 9 9 9 10 9 9 9 9 9 9 10 10 9 8 8 7 7 7 7 7 7
12 13 12 12 12 12 12 12 12 13 13 14 14 12 12 12 11 11 11 10 11 10 10 9 9 9 9 9 9 9 9 9 9 9 8 9 9 9 10 9 9 9 8 7 8 8 7 7 7
13 13 12 12 13 14 13 12 13 13 14 14 14 14 13 12 11 11 11 11 10 10 10 9 9 9 9 9 9 9 9 9 9 9 9 9 9 10 9 9 9 8 9 8 9 7 7 6 6
12 13 12 13 13 14 13 12 13 14 13 14 14 13 13 13 12 11 11 10 10 10 10 9 9 9 9 9 9 9 9 9 9 10 8 8 9 9 10 9 9 9 9 8 9 7 7 6 6
14 12 13 12 13 14 14 13 13 14 14 14 14 13 13 13 12 11 11 10 10 10 10 9 9 9 9 9 10 9 9 10 9 9 8 8 9 9 10 9 9 9 9 9 8 8 7 6 5
13 12 12 12 13 13 14 13 13 14 14 14 14 14 13 12 12 12 12 12 11 10 10 10 10 9 9 9 10 10 10 10 10 10 10 9 10 10 9 9 9 9 9 10 9 7 6 6 5
11 12 12 13 13 13 13 13 13 14 14 14 15 14 13 13 12 12 11 11 11 11 10 10 10 10 10 10 10 10 11 12 11 10 10 10 10 10 9 10 8 8 8 9 9 8 8 6 5
12 12 13 13 13 14 13 13 13 14 14 15 15 14 14 13 11 11 11 10 10 11 10 10 10 11 10 10 10 10 11 11 11 12 11 10 10 10 9 9 9 8 8 9 9 9 8 7 6
12 12 13 13 14 13 14 13 14 14 14 15 15 14 14 13 12 11 11 10 9 11 12 11 10 10 10 10 10 10 10 11 11 11 11 10 10 10 9 9 9 9 9 10 9 9 8 7 6
12 12 13 14 15 15 14 15 14 14 13 14 14 14 14 15 13 10 10 10 10 11 12 11 10 10 10 11 10 11 11 11 11 11 10 10 10 10 9 9 9 9 9 10 9 9 9 7 6
12 12 13 15 15 15 16 16 15 14 16 16 14 15 14 14 14 11 10 9 10 11 12 11 11 10 11 11 11 11 11 10 10 10 11 10 10 10 9 9 9 9 9 10 9 9 9 8 6
11 12 14 14 15 15 16 16 15 13 15 15 14 15 16 15 14 13 11 10 10 12 13 13 12 11 11 11 11 11 11 10 11 11 11 11 10 10 10 9 10 9 10 10 9 9 9 8 7
11 14 14 14 13 14 16 15 15 15 13 14 15 15 15 15 15 14 13 11 12 12 13 12 12 11 11 11 11 11 12 12 12 11 11 11 11 11 11 10 10 10 10 10 10 10 9 9 8
12 13 13 13 13 14 15 16 16 15 14 15 16 16 15 16 15 15 15 14 14 12 12 13 12 12 12 12 12 12 12 12 11 11 11 12 11 11 11 10 10 10 10 10 10 10 10 9 9
12 12 13 13 14 13 14 15 16 13 15 16 17 17 16 16 16 15 14 14 13 13 12 12 12 12 12 12 12 12 12 12 12 12 12 12 12 12 11 11 10 10 11 10 10 10 10 10 9
12 12 12 10 12 11 14 15 15 16 16 16 17 17 16 17 16 17 15 14 13 13 13 13 13 13 13 13 12 12 12 12 12 12 12 12 12 12 12 11 11 11 11 10 10 10 10 10 10
12 13 12 9 10 12 14 14 16 16 17 17 17 18 17 17 17 17 16 15 14 14 13 13 13 14 13 13 13 13 13 12 13 13 13 12 12 12 12 12 12 11 12 11 11 10 10 10 10
13 12 13 14 13 13 15 15 16 16 17 17 17 17 17 18 17 17 17 16 15 15 15 14 14 14 14 14 14 13 13 13 13 13 13 13 13 12 12 12 12 12 12 12 11 10 10 10 10
12 13 13 13 10 10 13 16 16 17 17 17 17 18 17 17 18 17 16 17 16 15 15 15 14 14 15 14 14 14 14 13 13 13 13 13 13 12 12 12 12 12 12 12 11 11 11 10 10
12 13 14 14 14 12 9 15 17 17 18 18 18 18 18 17 18 18 18 17 17 16 15 15 14 14 14 14 14 14 14 14 13 13 13 13 13 13 12 12 12 12 12 11 12 12 11 11 11
13 13 14 14 12 14 15 15 17 18 18 18 18 19 18 18 18 18 18 17 17 16 15 15 14 14 15 15 15 14 14 14 14 14 13 13 13 13 13 12 12 12 12 12 12 12 12 12 12
Height
3158 3158 3158 3158 3162 3159 3158 3160 3156 3154 3156 3160 3161 3162 3163 3161 3160 3165 3164 3168 3172 3176 3180 3183 3187 3190 3192 3194 3196 3198 3200 3201 3202 3202 3203 3203 3204 3205 3206 3206 3206 3206 3206 3206 3205 3205 3204 3204 3203
3158 3159 3158 3158 3159 3156 3157 3160 3158 3159 3160 3161 3162 3162 3162 3162 3161 3160 3163 3169 3174 3178 3182 3185 3188 3191 3193 3196 3197 3200 3201 3202 3203 3204 3204 3205 3206 3207 3208 3208 3207 3207 3207 3207 3207 3206 3206 3206 3205
3158 3158 3159 3156 3154 3157 3158 3159 3158 3159 3160 3161 3162 3161 3161 3162 3162 3164 3168 3171 3176 3180 3183 3187 3190 3193 3195 3197 3199 3201 3202 3203 3204 3205 3205 3206 3208 3209 3209 3209 3208 3208 3209 3208 3208 3208 3208 3208 3207
3157 3159 3158 3154 3153 3158 3159 3160 3159 3159 3161 3162 3162 3162 3162 3162 3163 3166 3169 3173 3178 3183 3185 3189 3192 3194 3197 3199 3200 3202 3203 3204 3205 3207 3207 3208 3209 3210 3210 3210 3210 3210 3210 3209 3209 3209 3209 3208 3209
3158 3158 3158 3159 3159 3159 3160 3158 3161 3160 3161 3162 3161 3160 3161 3161 3165 3168 3172 3176 3181 3184 3188 3191 3193 3196 3198 3200 3201 3203 3204 3206 3207 3208 3209 3210 3211 3211 3212 3211 3212 3212 3211 3210 3210 3209 3209 3209 3210
3161 3159 3159 3160 3158 3157 3158 3154 3162 3161 3161 3160 3161 3160 3160 3162 3166 3168 3174 3178 3184 3187 3190 3193 3195 3198 3199 3201 3203 3205 3206 3207 3208 3210 3211 3212 3213 3213 3213 3213 3213 3213 3213 3212 3212 3211 3210 3210 3210
3160 3159 3159 3160 3156 3157 3156 3151 3158 3162 3159 3159 3160 3159 3161 3163 3168 3172 3177 3181 3185 3189 3192 3195 3198 3199 3200 3203 3204 3206 3208 3209 3210 3211 3213 3213 3213 3214 3214 3214 3215 3215 3214 3214 3214 3213 3212 3211 3211
3157 3160 3159 3159 3154 3154 3156 3156 3162 3162 3159 3159 3161 3161 3160 3163 3169 3174 3178 3183 3186 3190 3194 3197 3199 3201 3203 3204 3205 3208 3209 3210 3211 3213 3214 3215 3215 3215 3216 3216 3216 3216 3215 3215 3216 3215 3215 3214 3213
3156 3159 3161 3162 3159 3158 3156 3161 3164 3162 3160 3160 3161 3162 3164 3166 3170 3174 3178 3183 3186 3190 3195 3198 3201 3202 3204 3206 3208 3210 3211 3212 3213 3214 3215 3216 3218 3218 3217 3217 3217 3217 3217 3217 3216 3217 3216 3216 3216
3155 3156 3159 3162 3161 3161 3161 3161 3160 3161 3160 3160 3161 3161 3165 3167 3170 3174 3178 3182 3186 3191 3194 3199 3202 3203 3205 3207 3209 3211 3211 3214 3215 3216 3217 3219 3219 3220 3219 3219 3219 3220 3219 3219 3218 3217 3217 3217 3217
3153 3155 3158 3160 3161 3160 3162 3160 3161 3162 3161 3161 3162 3163 3165 3168 3171 3176 3180 3184 3188 3192 3195 3198 3202 3204 3207 3209 3211 3211 3213 3215 3215 3217 3218 3219 3220 3222 3223 3220 3219 3221 3221 3220 3220 3221 3219 3219 3219
3151 3153 3156 3158 3160 3160 3161 3162 3159 3162 3165 3163 3164 3165 3166 3170 3173 3177 3181 3185 3188 3192 3196 3199 3202 3205 3207 3209 3211 3212 3214 3216 3216 3218 3218 3220 3221 3222 3223 3222 3221 3221 3221 3222 3221 3222 3222 3221 3220
3148 3150 3153 3157 3160 3159 3161 3161 3160 3162 3165 3164 3166 3167 3168 3171 3174 3179 3183 3187 3189 3192 3195 3199 3202 3205 3207 3209 3211 3212 3214 3216 3217 3218 3219 3220 3222 3224 3224 3222 3222 3222 3222 3223 3222 3222 3222 3221 3220
3147 3149 3151 3156 3157 3158 3161 3161 3159 3161 3164 3164 3165 3167 3169 3172 3174 3177 3181 3185 3189 3192 3195 3198 3202 3205 3207 3209 3212 3212 3214 3216 3217 3219 3220 3221 3222 3224 3226 3224 3224 3223 3223 3222 3222 3223 3222 3222 3220
3146 3148 3150 3152 3154 3158 3158 3161 3159 3162 3162 3164 3163 3165 3168 3171 3174 3176 3180 3183 3188 3191 3195 3197 3201 3205 3207 3209 3212 3212 3214 3216 3218 3218 3220 3221 3223 3225 3227 3225 3224 3224 3224 3224 3222 3222 3222 3223 3224
3141 3144 3145 3147 3152 3156 3158 3158 3156 3160 3161 3162 3163 3164 3167 3170 3174 3177 3180 3183 3187 3189 3193 3196 3200 3204 3207 3209 3212 3213 3215 3217 3217 3219 3221 3222 3224 3226 3226 3226 3225 3224 3224 3224 3225 3224 3224 3224 3224
3133 3134 3139 3142 3146 3149 3155 3154 3153 3158 3159 3161 3163 3164 3166 3169 3172 3175 3178 3181 3184 3187 3191 3194 3198 3202 3205 3208 3210 3213 3214 3216 3218 3220 3221 3223 3224 3225 3225 3225 3225 3226 3226 3226 3226 3225 3225 3224 3225
3124 3130 3134 3136 3140 3146 3147 3149 3150 3152 3155 3159 3162 3162 3165 3167 3170 3173 3176 3179 3182 3185 3189 3192 3197 3201 3204 3207 3209 3211 3214 3216 3218 3220 3221 3222 3223 3224 3224 3225 3226 3227 3226 3226 3227 3226 3225 3226 3226
3124 3128 3130 3133 3136 3141 3143 3144 3146 3147 3152 3156 3160 3161 3163 3165 3168 3171 3174 3177 3179 3182 3186 3189 3193 3198 3202 3204 3207 3210 3213 3216 3217 3219 3221 3221 3222 3224 3224 3225 3226 3227 3227 3226 3226 3226 3226 3227 3227
3119 3123 3125 3128 3131 3138 3138 3138 3140 3142 3143 3149 3154 3159 3160 3164 3165 3166 3170 3173 3175 3179 3183 3187 3190 3195 3200 3203 3207 3209 3212 3214 3216 3217 3220 3221 3222 3223 3224 3225 3226 3227 3227 3227 3227 3227 3227 3226 3227
3112 3116 3119 3122 3126 3129 3132 3135 3137 3144 3144 3147 3150 3151 3154 3155 3159 3162 3165 3168 3171 3174 3179 3183 3188 3193 3198 3202 3205 3207 3208 3211 3213 3216 3218 3220 3221 3222 3223 3225 3227 3228 3229 3227 3229 3229 3228 3228 3228
3105 3109 3115 3119 3125 3127 3128 3129 3130 3137 3138 3142 3144 3146 3148 3151 3154 3158 3161 3163 3166 3169 3176 3180 3185 3190 3195 3199 3202 3204 3207 3210 3213 3215 3217 3219 3220 3221 3222 3224 3225 3227 3228 3229 3229 3230 3230 3229 3229
3095 3108 3113 3115 3122 3125 3122 3125 3122 3124 3131 3132 3136 3140 3145 3150 3151 3151 3155 3158 3163 3167 3170 3176 3182 3186 3191 3196 3199 3202 3205 3209 3211 3213 3214 3216 3218 3220 3221 3222 3223 3226 3227 3228 3229 3230 3230 3230 3231
3101 3107 3110 3112 3116 3115 3114 3122 3112 3115 3119 3125 3130 3133 3140 3145 3147 3149 3150 3155 3158 3164 3167 3172 3177 3182 3186 3191 3195 3198 3202 3206 3209 3211 3212 3214 3216 3218 3220 3222 3223 3224 3226 3227 3229 3230 3231 3232 3232
3096 3102 3105 3107 3105 3106 3108 3112 3105 3107 3114 3119 3123 3126 3133 3139 3142 3144 3146 3149 3153 3158 3163 3167 3172 3176 3181 3186 3190 3194 3198 3202 3206 3209 3211 3213 3215 3217 3219 3221 3222 3223 3225 3226 3228 3230 3231 3233 3233
3085 3092 3092 3101 3102 3103 3101 3097 3096 3106 3110 3111 3116 3121 3127 3133 3138 3140 3143 3147 3151 3154 3159 3163 3168 3172 3176 3181 3186 3191 3195 3198 3202 3205 3208 3211 3213 3215 3216 3218 3220 3221 3222 3224 3226 3228 3231 3233 3234
3077 3077 3090 3094 3094 3097 3089 3095 3099 3100 3104 3107 3112 3118 3123 3129 3132 3136 3140 3143 3149 3151 3155 3158 3163 3168 3172 3177 3182 3186 3191 3194 3198 3202 3204 3207 3210 3212 3214 3215 3216 3217 3219 3222 3224 3227 3229 3232 3233
3063 3076 3080 3080 3088 3093 3082 3083 3086 3092 3093 3103 3106 3111 3115 3122 3127 3132 3135 3140 3145 3149 3151 3156 3160 3164 3169 3172 3177 3181 3186 3190 3194 3197 3200 3204 3207 3209 3211 3213 3214 3215 3217 3219 3221 3224 3226 3229 3231
3057 3060 3067 3076 3079 3080 3084 3072 3080 3086 3089 3094 3097 3103 3108 3115 3120 3126 3130 3137 3140 3145 3147 3151 3156 3160 3164 3168 3174 3177 3180 3185 3189 3192 3196 3200 3203 3205 3208 3210 3212 3214 3215 3216 3219 3221 3223 3226 3228
3052 3056 3064 3065 3068 3073 3072 3061 3074 3080 3085 3089 3093 3094 3100 3107 3112 3120 3126 3132 3136 3140 3142 3146 3151 3155 3160 3165 3168 3172 3176 3180 3184 3188 3192 3195 3198 3201 3203 3206 3208 3210 3213 3215 3216 3218 3220 3222 3224
Wind_Speed
1 1 2 2 3 2 5 4 10 14 17 16 17 11 11 11 11 6 30 32 34 32 31 29 27 23 21 20 21 20 19 17 15 16 16 15 14 14 13 13 13 12 11 10 11 11 12 13 12
2 1 2 3 3 6 7 8 13 10 12 15 16 12 11 17 6 16 35 33 33 31 28 28 24 21 20 20 21 20 18 16 14 15 15 15 15 15 14 14 14 13 12 11 11 11 12 11 10
3 2 2 1 0 9 4 11 11 15 13 9 16 17 14 15 10 24 32 33 34 31 29 26 23 19 18 19 20 19 17 15 14 14 15 15 14 14 14 14 15 14 13 12 11 10 10 12 11
4 2 6 6 9 6 4 14 14 18 14 10 7 12 14 15 16 29 32 33 34 31 28 24 21 18 18 19 19 18 17 15 14 14 14 14 14 14 13 14 14 12 12 11 10 9 8 8 9
3 4 4 12 5 5 4 17 16 13 12 9 8 9 12 23 26 29 33 35 32 31 27 23 20 18 19 20 19 17 16 15 14 14 14 14 13 13 12 12 13 13 12 10 9 7 7 6 9
0 5 2 9 14 8 9 16 23 11 9 9 12 13 22 29 31 31 34 35 32 28 26 22 20 18 20 20 18 17 16 16 15 15 14 13 13 12 11 13 14 14 13 12 13 10 10 8 7
8 11 11 16 16 4 11 14 22 2 4 9 9 22 30 34 33 31 34 34 32 27 24 22 19 20 21 20 19 17 17 17 15 15 14 13 13 13 14 14 14 14 14 15 16 14 15 15 16
12 3 1 15 12 15 13 21 13 1 6 9 11 26 33 35 32 31 36 33 30 27 24 21 19 21 21 20 19 18 18 16 15 14 12 11 11 13 14 14 13 12 13 13 14 16 17 15 17
7 2 10 8 5 4 19 18 10 4 7 10 11 14 27 35 32 33 37 33 31 28 25 22 21 22 21 19 18 18 17 15 14 13 13 11 11 12 13 14 10 12 11 11 15 13 12 15 16
15 15 2 9 5 3 9 13 4 5 7 3 5 24 32 36 29 32 35 31 31 29 27 23 22 21 20 18 18 17 15 14 13 11 11 11 11 11 9 14 11 10 10 10 11 9 11 8 11
14 11 6 10 2 8 11 10 9 3 2 1 4 25 32 36 29 31 32 29 29 27 26 24 22 22 19 18 18 16 14 13 13 12 9 11 13 10 12 12 12 11 9 6 5 8 10 11 8
20 12 10 6 3 12 11 10 12 10 4 5 5 9 22 32 31 30 30 30 31 28 26 24 23 22 20 19 18 15 14 14 13 9 10 11 12 11 7 7 9 10 8 5 5 8 6 7 6
23 13 8 8 5 9 7 12 11 11 10 2 10 12 18 27 28 30 29 30 30 29 27 25 23 22 21 19 19 16 16 16 11 15 13 9 8 7 7 7 8 7 6 5 6 6 7 4 6
17 10 11 20 17 16 15 7 15 19 15 7 9 15 16 22 25 29 29 27 27 29 28 26 24 23 21 19 17 18 15 16 15 14 12 9 5 4 7 7 5 8 6 6 8 7 6 2 3
20 19 15 26 21 14 16 22 22 18 16 9 12 13 17 21 26 23 22 23 23 28 28 27 25 25 22 20 16 16 16 18 17 15 13 11 9 6 6 4 6 9 7 6 10 8 5 4 8
22 24 26 23 27 21 18 25 26 22 16 9 11 15 17 21 21 20 22 21 21 22 29 29 27 25 22 20 14 14 15 16 12 14 11 10 9 7 6 4 5 8 6 8 8 9 7 12 13
30 28 21 26 27 33 24 26 33 26 23 11 12 16 17 18 23 22 23 21 18 17 28 30 29 25 23 20 18 14 11 10 10 10 11 8 7 6 3 4 6 5 5 8 7 9 6 8 8
27 21 26 26 27 35 24 33 36 30 29 18 16 16 15 18 20 19 17 21 23 20 22 24 23 23 23 22 19 17 14 11 10 7 7 8 7 5 4 2 2 4 7 10 9 6 5 6 9
28 24 23 23 23 28 35 29 35 41 34 26 24 17 15 8 15 18 17 16 20 18 20 22 22 23 23 23 22 19 15 12 10 9 8 7 8 8 7 4 2 3 4 7 8 9 8 6 6
33 27 30 26 26 27 30 32 37 49 33 30 29 13 17 17 17 21 22 21 22 17 19 20 19 21 24 23 21 17 15 13 11 9 8 8 8 8 8 6 3 2 2 6 8 8 10 7 7
36 35 35 35 26 16 25 24 29 49 38 36 36 27 7 11 17 22 27 28 27 21 19 20 20 21 24 23 23 22 21 20 17 12 9 9 8 8 7 7 6 4 3 5 5 6 8 8 6
38 44 38 35 28 20 12 25 27 38 52 46 38 35 18 16 16 21 24 31 26 24 20 20 21 23 26 27 26 24 19 15 11 10 10 10 10 9 9 8 7 5 3 5 5 5 7 9 5
46 41 38 37 29 26 34 25 35 36 58 49 39 37 32 18 22 15 19 19 17 23 24 21 23 26 27 29 27 25 23 18 17 16 13 12 13 12 10 8 7 5 5 5 6 4 6 8 6
34 33 34 33 31 20 39 23 28 45 53 45 36 37 41 28 19 17 18 18 20 19 24 26 27 29 30 30 29 26 23 21 21 19 17 15 13 11 10 9 8 6 4 7 8 6 5 7 8
36 33 19 11 14 10 30 24 33 24 36 43 44 42 40 33 28 13 23 27 25 24 23 25 30 31 31 30 29 27 24 23 20 18 17 15 13 10 9 10 9 8 6 8 11 9 6 5 8
41 38 17 9 5 9 36 19 43 34 28 35 42 45 42 35 31 18 22 25 26 23 24 25 30 32 31 30 29 28 27 26 22 20 17 15 13 12 14 12 10 10 7 8 11 13 10 7 9
42 46 43 16 8 13 16 32 35 39 28 25 23 45 44 37 28 25 20 21 24 22 18 20 29 31 31 29 29 28 26 26 23 21 19 17 15 14 14 12 11 10 8 8 11 16 15 12 10
45 35 40 37 12 5 8 22 33 42 43 34 30 28 41 45 26 26 28 18 20 18 17 14 20 30 29 30 29 27 25 26 25 24 22 19 16 16 15 12 11 11 10 9 8 12 18 18 15
39 48 40 36 28 10 4 22 36 29 39 40 36 31 31 41 35 33 31 25 17 14 18 17 19 28 32 31 29 28 28 27 26 26 24 22 20 18 16 14 13 12 13 12 9 8 14 20 19
50 31 41 26 20 32 20 30 22 32 25 22 29 42 39 33 33 38 33 30 22 19 19 21 20 27 30 30 31 31 28 27 27 25 24 21 21 20 17 16 15 13 11 10 8 7 9 15 21
Wind_Direction
38 155 248 328 325 297 271 148 121 137 135 146 168 193 191 204 151 162 151 153 151 151 149 144 146 147 142 140 136 132 128 121 118 111 106 104 105 106 103 97 96 94 94 92 84 74 64 67 70
28 72 250 327 322 311 270 175 148 148 160 167 177 197 188 174 173 153 155 154 153 154 149 145 146 146 144 142 135 135 130 124 117 110 107 103 100 98 95 92 90 90 90 90 87 76 68 80 74
36 1 287 72 139 193 165 156 145 151 167 187 185 190 179 190 184 156 156 155 155 155 150 147 147 146 143 141 137 137 133 127 120 114 108 102 99 96 95 91 89 90 90 90 86 82 79 80 79
67 303 312 170 168 269 201 160 156 156 176 183 182 179 193 167 160 160 159 156 156 156 151 150 147 145 143 143 139 137 134 132 126 119 110 103 100 100 97 94 90 87 84 84 83 88 93 94 91
224 352 67 168 241 310 225 171 189 172 175 190 204 212 186 161 155 159 162 155 160 157 153 152 148 146 143 144 139 138 136 132 127 123 116 114 111 107 101 95 91 86 86 87 87 88 95 110 99
317 250 332 7 337 264 238 212 179 206 210 195 196 200 162 159 163 163 161 158 162 159 156 154 150 147 143 144 141 140 136 133 128 125 122 119 114 106 102 96 90 81 76 70 66 76 87 100 99
113 92 81 21 37 30 205 168 180 176 60 182 177 174 156 156 166 164 160 163 163 162 159 157 151 147 143 140 139 139 135 132 129 126 126 125 119 110 103 97 93 85 78 84 61 80 84 85 88
178 307 31 81 42 19 174 164 191 97 84 124 152 179 170 163 165 165 164 166 165 164 164 159 152 147 143 143 142 140 138 138 134 127 123 118 118 113 103 98 95 92 91 95 75 82 81 85 95
164 300 151 151 52 54 157 159 152 175 134 108 145 198 185 163 167 169 168 170 168 169 168 160 156 151 148 147 143 142 142 141 135 130 127 120 112 104 106 99 102 98 86 85 87 68 75 83 89
200 222 218 160 33 127 139 151 197 169 130 135 158 164 172 169 169 170 172 175 173 174 169 163 160 156 154 150 147 145 146 139 131 125 120 117 106 101 94 102 78 90 79 85 92 66 56 64 101
193 173 147 142 104 144 147 167 200 177 115 55 184 171 175 176 174 176 176 178 177 175 173 164 163 161 158 155 150 149 151 132 140 136 129 127 111 92 76 107 91 89 85 65 83 67 70 68 112
193 174 184 226 336 166 162 195 208 220 322 97 115 181 181 176 182 180 180 176 182 179 175 165 168 166 164 163 156 154 151 138 138 146 150 151 117 128 117 107 90 108 95 71 66 98 107 97 80
200 183 214 249 154 199 178 172 214 218 222 211 163 176 187 183 181 183 185 181 185 183 177 171 171 172 172 172 165 159 159 146 161 138 144 126 122 117 105 96 99 65 64 65 86 76 57 43 45
188 200 227 246 235 276 207 216 223 201 217 221 190 182 184 191 186 187 189 188 189 186 181 177 176 178 180 182 175 163 172 168 168 151 132 136 137 108 96 85 82 36 29 63 57 54 119 68 315
192 230 246 233 237 251 221 214 209 199 199 222 185 188 188 192 195 195 191 193 186 187 185 181 183 182 185 192 187 174 183 187 172 143 140 145 134 141 110 115 74 34 46 65 69 27 155 153 130
224 243 252 244 222 222 188 211 214 205 195 197 188 189 190 198 196 201 201 198 197 188 192 185 188 185 186 190 196 193 192 181 169 147 148 155 146 140 127 104 101 58 32 60 53 71 105 94 87
217 235 230 238 231 223 220 229 222 207 204 207 192 184 191 190 187 197 204 206 212 203 176 180 185 185 182 182 182 181 189 177 176 169 159 166 168 159 162 53 86 79 74 79 73 70 67 78 119
219 224 233 236 232 210 211 226 224 213 208 217 196 177 177 195 189 184 192 198 212 218 175 173 183 189 190 186 189 184 188 190 174 196 179 172 175 178 190 150 90 64 76 77 60 50 66 86 121
218 225 229 227 237 207 220 243 223 218 205 213 203 198 183 173 187 186 194 194 201 205 191 180 183 189 201 194 196 190 190 193 192 173 188 188 180 189 209 200 216 349 64 81 67 50 42 105 124
215 224 227 222 219 232 229 234 215 214 219 214 194 207 212 202 195 197 204 210 213 208 200 195 189 198 202 203 200 198 195 203 209 203 191 194 196 194 202 215 189 199 92 86 71 52 36 63 110
218 219 214 230 221 250 240 222 219 210 220 212 205 222 249 211 215 202 204 216 223 215 208 197 193 198 199 202 204 201 201 202 209 207 195 192 206 209 199 205 204 187 158 114 104 73 45 62 112
224 203 215 231 253 262 256 235 235 219 207 212 213 223 232 221 216 217 209 212 223 217 218 204 202 204 200 203 205 208 210 209 209 214 204 199 205 212 215 208 211 207 187 157 134 94 67 61 73
223 211 224 234 251 255 255 220 229 213 204 212 222 226 223 228 214 192 214 207 211 225 220 216 209 208 202 203 207 207 209 203 203 210 211 206 206 214 212 213 229 215 194 183 152 133 92 85 85
221 221 232 248 250 247 252 251 238 193 204 218 224 228 223 220 202 209 217 224 216 222 228 222 216 210 205 205 208 210 206 204 209 208 210 213 214 214 223 229 227 237 203 187 180 162 118 105 98
216 221 227 250 233 234 247 242 238 218 221 230 222 219 223 223 219 212 208 217 219 215 216 215 212 209 207 206 208 212 210 209 211 211 209 212 215 223 220 230 232 231 212 190 192 177 155 132 115
218 217 211 210 207 226 243 222 238 230 237 243 231 238 223 222 218 215 198 208 212 211 216 212 211 210 207 207 207 212 212 212 212 214 209 206 204 207 218 219 222 228 220 191 191 192 184 172 143
216 222 220 231 245 215 237 241 245 230 235 237 226 226 225 221 221 223 200 203 212 210 208 210 210 212 209 206 207 209 211 213 212 213 215 212 204 206 218 216 210 220 220 204 194 198 199 198 192
222 220 209 215 220 241 229 216 224 235 237 240 233 227 224 223 225 215 220 208 214 215 208 204 212 214 211 206 207 208 208 212 215 217 219 218 214 212 219 224 215 220 225 226 211 204 205 208 211
214 217 216 216 223 225 227 244 229 230 234 233 242 235 217 217 230 222 228 214 202 203 205 205 209 212 213 211 206 208 209 207 210 217 221 220 220 218 215 219 219 217 221 228 228 212 215 214 216
222 217 215 211 203 224 245 258 243 230 234 232 250 244 233 224 227 228 222 215 199 203 202 205 205 208 210 212 207 207 210 210 210 214 221 222 220 223 222 222 222 220 222 235 243 233 227 226 223